FLOCK JA

Last updated on May 24, 2016, 9:36 a.m. UTC

1 41480U 98067JA  16145.11449713  .00011781  00000-0  17590-3 0  9997
2 41480  51.6419 178.0772 0003169 335.8640 127.8809 15.55510562  1051
UTC
Height (km)
Latitude
Longitude
Inclination
Orbital Period
UTC large
Height (km)
Speed (km/s)
/
Latitude / Longitude
Inclination (degrees)
Orbital Period (minutes)
Azimuth
Elevation
Range (km)
Doppler Factor
iOS Compass Heading
iOS Angle

Next 30 passes for location: Hong Kong

Rise time Rise Azimuth (degrees) Set time Set Azimuth (degrees) Duration Max altitude (degrees)

No matching passes for this satellites